When you browse on this site, cookies collect data to enhance your experience and personalize the content and advertising you see.
Visit our Privacy Policy to learn more. By continuing to use the site, you agree to this use of cookies and data.
  • En España
  • Lista de países
  • Para 7 días
  • Temperatura del agua
  • Mapa Satelital
  • El tiempo en el mapa
  • Informadores
  • user-avatar
    Iniciar sesión

    Tiempo cada hora Darwin

    Hoy, 22 Febrero, Viernes

    Tiempo Temperatura Precipitaciones Viento Presión Humedad
    00:00 +30°C° 0 mm 4 mps 757 mmHg 87%
    01:00 +30°C° 0 mm 4 mps 757 mmHg 87%
    02:00 +30°C° 0 mm 5 mps 756 mmHg 87%
    03:00 +30°C° 0 mm 5 mps 756 mmHg 87%
    04:00 +30°C° 0 mm 5 mps 756 mmHg 88%
    05:00 +30°C° 0 mm 5 mps 756 mmHg 89%
    06:00 +30°C° 0 mm 5 mps 756 mmHg 90%
    07:00 +32°C° 0 mm 5 mps 757 mmHg 85%
    08:00 +33°C° 0 mm 5 mps 757 mmHg 80%
    09:00 +34°C° 0 mm 5 mps 757 mmHg 75%
    10:00 +35°C° 0 mm 5 mps 757 mmHg 69%
    11:00 +37°C° 0 mm 5 mps 757 mmHg 63%
    12:00 +39°C° 0 mm 5 mps 757 mmHg 57%
    13:00 +39°C° 0 mm 5 mps 756 mmHg 56%
    14:00 +39°C° 0 mm 6 mps 756 mmHg 56%
    15:00 +39°C° 0 mm 6 mps 755 mmHg 55%
    16:00 +38°C° 0 mm 6 mps 755 mmHg 61%
    17:00 +36°C° 0 mm 6 mps 755 mmHg 67%
    18:00 +34°C° 0 mm 6 mps 755 mmHg 73%
    19:00 +34°C° 0 mm 6 mps 755 mmHg 77%
    20:00 +33°C° 0 mm 6 mps 755 mmHg 80%
    21:00 +32°C° 0 mm 6 mps 755 mmHg 84%
    22:00 +32°C° 3.1 mm 5 mps 755 mmHg 85%
    23:00 +30°C° 3.1 mm 5 mps 755 mmHg 85%

    Mañana, 23 Febrero, Sábado

    Tiempo Temperatura Precipitaciones Viento Presión Humedad
    00:00 +30°C° 3.1 mm 4 mps 756 mmHg 85%
    01:00 +30°C° 0.2 mm 5 mps 755 mmHg 86%
    02:00 +30°C° 0.2 mm 6 mps 755 mmHg 86%
    03:00 +30°C° 0.2 mm 7 mps 755 mmHg 86%
    04:00 +30°C° 1.2 mm 7 mps 755 mmHg 87%
    05:00 +30°C° 1.2 mm 6 mps 755 mmHg 88%
    06:00 +30°C° 1.2 mm 5 mps 755 mmHg 89%
    07:00 +30°C° 0.1 mm 5 mps 756 mmHg 85%
    08:00 +32°C° 0.1 mm 5 mps 756 mmHg 82%
    09:00 +33°C° 0.1 mm 5 mps 756 mmHg 78%
    10:00 +34°C° 0 mm 5 mps 756 mmHg 74%
    11:00 +35°C° 0 mm 5 mps 756 mmHg 70%
    12:00 +36°C° 0 mm 6 mps 756 mmHg 66%
    13:00 +36°C° 0 mm 6 mps 755 mmHg 65%
    14:00 +36°C° 0 mm 6 mps 755 mmHg 64%
    15:00 +36°C° 0 mm 6 mps 754 mmHg 63%
    16:00 +35°C° 0 mm 6 mps 754 mmHg 67%
    17:00 +34°C° 0 mm 6 mps 754 mmHg 71%
    18:00 +33°C° 0 mm 6 mps 754 mmHg 75%
    19:00 +33°C° 0 mm 5 mps 754 mmHg 77%
    20:00 +32°C° 0 mm 5 mps 755 mmHg 79%
    21:00 +32°C° 0 mm 5 mps 755 mmHg 82%
    22:00 +30°C° 0 mm 5 mps 755 mmHg 83%
    23:00 +30°C° 0 mm 4 mps 755 mmHg 84%

    Pasado mañana, 24 Febrero, Domingo

    Tiempo Temperatura Precipitaciones Viento Presión Humedad
    00:00 +30°C° 0 mm 4 mps 755 mmHg 85%
    01:00 +30°C° 0 mm 4 mps 755 mmHg 86%
    02:00 +30°C° 0 mm 4 mps 755 mmHg 87%
    03:00 +30°C° 0 mm 4 mps 754 mmHg 87%
    04:00 +29°C° 0.4 mm 4 mps 755 mmHg 89%
    05:00 +29°C° 0.4 mm 4 mps 755 mmHg 90%
    06:00 +29°C° 0.4 mm 4 mps 755 mmHg 91%
    07:00 +30°C° 0.3 mm 4 mps 756 mmHg 87%
    08:00 +32°C° 0.3 mm 4 mps 756 mmHg 83%
    09:00 +34°C° 0.3 mm 4 mps 757 mmHg 79%
    10:00 +35°C° 0 mm 4 mps 756 mmHg 74%
    11:00 +36°C° 0 mm 4 mps 756 mmHg 69%
    12:00 +37°C° 0 mm 5 mps 756 mmHg 63%
    13:00 +37°C° 0 mm 5 mps 755 mmHg 63%
    14:00 +37°C° 0 mm 5 mps 754 mmHg 62%
    15:00 +37°C° 0 mm 5 mps 754 mmHg 61%
    16:00 +36°C° 0.1 mm 5 mps 754 mmHg 66%
    17:00 +35°C° 0.1 mm 4 mps 754 mmHg 70%
    18:00 +34°C° 0.1 mm 4 mps 754 mmHg 75%
    19:00 +33°C° 0 mm 4 mps 755 mmHg 79%
    20:00 +31°C° 0 mm 3 mps 755 mmHg 83%
    21:00 +30°C° 0 mm 3 mps 756 mmHg 87%
    22:00 +30°C° 0.3 mm 3 mps 756 mmHg 89%
    23:00 +30°C° 0.3 mm 3 mps 756 mmHg 90%

    25 Febrero, Lunes

    Tiempo Temperatura Precipitaciones Viento Presión Humedad
    00:00 +30°C° 0.3 mm 3 mps 757 mmHg 91%
    01:00 +30°C° 0.7 mm 3 mps 756 mmHg 92%
    02:00 +29°C° 0.7 mm 3 mps 756 mmHg 92%
    03:00 +29°C° 0.7 mm 3 mps 755 mmHg 92%
    04:00 +29°C° 1.7 mm 3 mps 756 mmHg 90%
    05:00 +29°C° 1.7 mm 3 mps 756 mmHg 89%
    06:00 +29°C° 1.7 mm 3 mps 757 mmHg 88%
    07:00 +30°C° 0.5 mm 2 mps 757 mmHg 87%
    08:00 +30°C° 0.5 mm 2 mps 758 mmHg 85%
    09:00 +31°C° 0.5 mm 2 mps 758 mmHg 84%
    10:00 +32°C° 0 mm 2 mps 758 mmHg 77%
    11:00 +34°C° 0 mm 2 mps 758 mmHg 71%
    12:00 +35°C° 0 mm 2 mps 758 mmHg 64%
    13:00 +35°C° 0 mm 2 mps 757 mmHg 63%
    14:00 +36°C° 0 mm 2 mps 756 mmHg 61%
    15:00 +36°C° 0 mm 2 mps 756 mmHg 59%
    16:00 +35°C° 0.8 mm 2 mps 756 mmHg 65%
    17:00 +34°C° 0.8 mm 2 mps 756 mmHg 71%
    18:00 +31°C° 0.8 mm 2 mps 756 mmHg 77%
    19:00 +31°C° 0.1 mm 2 mps 757 mmHg 80%
    20:00 +30°C° 0.1 mm 1 mps 757 mmHg 82%
    21:00 +29°C° 0.1 mm 1 mps 758 mmHg 84%
    22:00 +29°C° 0.5 mm 1 mps 758 mmHg 85%
    23:00 +29°C° 0.5 mm 1 mps 758 mmHg 85%

    26 Febrero, Martes

    Tiempo Temperatura Precipitaciones Viento Presión Humedad
    00:00 +29°C° 0.5 mm 2 mps 758 mmHg 85%
    01:00 +28°C° 0.6 mm 1 mps 757 mmHg 86%
    02:00 +28°C° 0.6 mm 1 mps 757 mmHg 87%
    03:00 +28°C° 0.6 mm 1 mps 756 mmHg 88%
    04:00 +28°C° 0 mm 1 mps 757 mmHg 89%
    05:00 +27°C° 0 mm 1 mps 757 mmHg 90%
    06:00 +27°C° 0 mm 1 mps 757 mmHg 91%
    07:00 +29°C° 0.1 mm 1 mps 758 mmHg 85%
    08:00 +30°C° 0.1 mm 2 mps 758 mmHg 80%
    09:00 +31°C° 0.1 mm 2 mps 759 mmHg 74%
    10:00 +32°C° 0.2 mm 2 mps 759 mmHg 71%
    11:00 +34°C° 0.2 mm 2 mps 759 mmHg 67%
    12:00 +34°C° 0.2 mm 2 mps 758 mmHg 64%
    13:00 +34°C° 0.6 mm 1 mps 758 mmHg 63%
    14:00 +34°C° 0.6 mm 1 mps 757 mmHg 62%
    15:00 +34°C° 0.6 mm 1 mps 756 mmHg 62%
    16:00 +34°C° 0.1 mm 1 mps 757 mmHg 63%
    17:00 +33°C° 0.1 mm 1 mps 757 mmHg 65%
    18:00 +33°C° 0.1 mm 1 mps 757 mmHg 67%
    19:00 +32°C° 0.1 mm 1 mps 758 mmHg 71%
    20:00 +30°C° 0.1 mm 1 mps 758 mmHg 74%
    21:00 +29°C° 0.1 mm 1 mps 758 mmHg 78%
    22:00 +29°C° 0 mm 1 mps 758 mmHg 79%
    23:00 +29°C° 0 mm 2 mps 758 mmHg 80%

    27 Febrero, Miércoles

    Tiempo Temperatura Precipitaciones Viento Presión Humedad
    00:00 +29°C° 0 mm 2 mps 758 mmHg 82%
    01:00 +29°C° 0.1 mm 2 mps 758 mmHg 83%
    02:00 +28°C° 0.1 mm 2 mps 757 mmHg 85%
    03:00 +28°C° 0.1 mm 2 mps 757 mmHg 86%
    04:00 +28°C° 1.6 mm 2 mps 757 mmHg 87%
    05:00 +28°C° 1.6 mm 2 mps 757 mmHg 89%
    06:00 +27°C° 1.6 mm 1 mps 758 mmHg 90%
    07:00 +29°C° 1.1 mm 1 mps 758 mmHg 86%
    08:00 +30°C° 1.1 mm 1 mps 758 mmHg 82%
    09:00 +31°C° 1.1 mm 2 mps 759 mmHg 77%
    10:00 +32°C° 0 mm 1 mps 758 mmHg 70%
    11:00 +34°C° 0 mm 1 mps 758 mmHg 64%
    12:00 +35°C° 0 mm 1 mps 757 mmHg 57%
    13:00 +36°C° 0 mm 2 mps 757 mmHg 57%
    14:00 +36°C° 0 mm 2 mps 756 mmHg 57%
    15:00 +36°C° 0 mm 2 mps 756 mmHg 57%
    16:00 +34°C° 3.2 mm 2 mps 756 mmHg 66%
    17:00 +32°C° 3.2 mm 2 mps 756 mmHg 75%
    18:00 +30°C° 3.2 mm 2 mps 756 mmHg 85%
    19:00 +29°C° 0.3 mm 2 mps 757 mmHg 85%
    20:00 +29°C° 0.3 mm 1 mps 757 mmHg 85%
    21:00 +28°C° 0.3 mm 1 mps 758 mmHg 85%
    22:00 +28°C° 0 mm 1 mps 758 mmHg 85%
    23:00 +28°C° 0 mm 1 mps 758 mmHg 85%
    Mostrar más